Eugene, OR

10:02 AM PST on November 17, 2019 (GMT -0800)
Mahlon Sweet

Weather History for KEUG - September, 2019

Change the Weather History Date:

Sunday, September 15, 2019

  Actual Average Record
Temperature  
Mean Temperature 58 °F 62 °F  
Max Temperature 61 °F 78 °F 96 °F (1967)
Min Temperature 55 °F 47 °F 36 °F (1969)
Degree Days  
Heating Degree Days 7 4  
Month to date heating degree days 14 39  
Since 1 July heating degree days 26 106  
Cooling Degree Days 0 1  
Month to date cooling degree days 43 22  
Year to date cooling degree days 351 230  
Growing Degree Days 9 (Base 50)    
Moisture  
Dew Point 55 °F    
Average Humidity 86    
Maximum Humidity 93    
Minimum Humidity 78    
Precipitation  
Precipitation 0.66 in 0.04 in 1.17 in (1963)
Month to date precipitation 2.32 0.54  
Year to date precipitation 25.53 26.55  
Sea Level Pressure  
Sea Level Pressure 29.83 in    
Wind  
Wind Speed 8 mph (SSE)    
Max Wind Speed 15 mph    
Max Gust Speed 17 mph    
Visibility 7 miles    
Events Rain    
T = Trace of Precipitation, MM = Missing Value Source: NWS Daily Summary

Daily Weather History Graph

Daily Weather History Graph

Search for Another Location

Airport or City:

Astronomy

Sep. 15, 2019 Rise Set
Actual Time 6:51 AM PDT 7:23 PM PDT
Civil Twilight 6:22 AM PDT 7:52 PM PDT
Nautical Twilight 5:48 AM PDT 8:26 PM PDT
Astronomical Twilight 5:12 AM PDT 9:02 PM PDT
Moon 8:31 PM PDT (9/15) 8:08 AM PDT (9/15)
Length of Visible Light 13h 29m
Length of Day
12h 31m
Full, 98% of the Moon is Illuminated
Sep 15
Full
Sep 21
Last Quarter
Sep 28
New
Oct 5
First Quarter
Oct 13
Full

Hourly Weather History & Observations

Time (PDT) Temp. Dew Point Humidity Pressure Visibility Wind Dir Wind Speed Gust Speed Precip Events Conditions
12:54 AM 57.0 °F 53.1 °F 87% 29.91 in 10.0 mi South 6.9 mph - N/A   Clear
1:54 AM 57.9 °F 53.1 °F 84% 29.90 in 10.0 mi SSE 8.1 mph - N/A   Clear
2:54 AM 57.0 °F 52.0 °F 83% 29.87 in 10.0 mi SSE 6.9 mph - N/A   Clear
3:54 AM 55.0 °F 52.0 °F 89% 29.85 in 10.0 mi South 6.9 mph - N/A   Scattered Clouds
4:54 AM 57.9 °F 54.0 °F 87% 29.84 in 10.0 mi South 4.6 mph - N/A   Overcast
5:54 AM 60.1 °F 54.0 °F 80% 29.82 in 10.0 mi South 11.5 mph - N/A   Mostly Cloudy
6:54 AM 60.1 °F 53.1 °F 78% 29.81 in 10.0 mi South 10.4 mph - N/A   Mostly Cloudy
7:54 AM 61.0 °F 54.0 °F 78% 29.81 in 3.0 mi SSE 10.4 mph - 0.01 in Rain Light Rain
8:54 AM 60.1 °F 55.9 °F 86% 29.81 in 9.0 mi SW 3.5 mph - 0.03 in Rain Light Rain
9:30 AM 60.1 °F 55.0 °F 83% 29.82 in 6.0 mi South 6.9 mph - 0.01 in Rain Light Rain
9:54 AM 60.1 °F 55.9 °F 86% 29.82 in 2.0 mi SSE 3.5 mph - 0.02 in Rain Rain
10:54 AM 59.0 °F 57.0 °F 93% 29.83 in 2.5 mi South 6.9 mph - 0.12 in Rain Light Rain
11:23 AM 60.1 °F 57.0 °F 90% 29.83 in 1.5 mi SSW 6.9 mph - 0.06 in Rain Rain
11:54 AM 60.1 °F 57.0 °F 90% 29.84 in 1.8 mi SW 9.2 mph - 0.12 in Rain Light Rain
12:36 PM 59.0 °F 55.0 °F 87% 29.85 in 3.0 mi South 6.9 mph - 0.07 in Rain Rain
12:54 PM 57.9 °F 54.0 °F 87% 29.85 in 3.0 mi SE 6.9 mph - 0.10 in Rain Light Rain
1:54 PM 57.0 °F 54.0 °F 89% 29.85 in 3.0 mi SSE 8.1 mph - 0.11 in Rain Rain
2:54 PM 57.9 °F 55.0 °F 90% 29.82 in 3.0 mi SE 10.4 mph - 0.10 in Rain Light Rain
3:17 PM 57.9 °F 55.0 °F 90% 29.82 in 6.0 mi SSE 10.4 mph - 0.01 in Rain Light Rain
3:49 PM 57.2 °F 55.4 °F 94% 29.82 in 4.0 mi SSE 8.1 mph - 0.02 in Rain Light Rain
3:54 PM 57.9 °F 55.0 °F 90% 29.82 in 5.0 mi SSE 9.2 mph - 0.02 in Rain Light Rain
4:34 PM 57.9 °F 55.0 °F 90% 29.82 in 7.0 mi SSE 9.2 mph - 0.01 in Rain Light Rain
4:54 PM 57.9 °F 55.0 °F 90% 29.82 in 8.0 mi SSE 10.4 mph - 0.02 in Rain Light Rain
5:17 PM 57.9 °F 55.0 °F 90% 29.82 in 9.0 mi SE 6.9 mph - 0.00 in   Overcast
5:54 PM 57.9 °F 54.0 °F 87% 29.82 in 10.0 mi SSE 5.8 mph - 0.00 in   Overcast
6:54 PM 57.9 °F 55.0 °F 90% 29.82 in 8.0 mi SSE 6.9 mph - 0.01 in Rain Light Rain
6:58 PM 57.9 °F 55.0 °F 90% 29.82 in 4.0 mi SSE 5.8 mph - 0.00 in Rain Light Rain
7:54 PM 57.0 °F 55.0 °F 93% 29.81 in 6.0 mi SSE 6.9 mph - 0.04 in Rain Light Rain
8:54 PM 57.0 °F 55.0 °F 93% 29.83 in 7.0 mi SSE 4.6 mph - 0.03 in Rain Light Rain
9:54 PM 57.0 °F 55.0 °F 93% 29.83 in 10.0 mi South 5.8 mph - 0.01 in   Overcast
10:54 PM 57.0 °F 54.0 °F 89% 29.83 in 10.0 mi South 4.6 mph - N/A   Overcast
11:54 PM 57.0 °F 54.0 °F 89% 29.83 in 10.0 mi SSE 6.9 mph - N/A   Overcast